Weather in Skugry

Russia / Pskov Oblast     57°51′01″N   29°53′14″E
temp.,
°C
wind,
m/s
gust,
m/s
humid.,
%
clouds,
%
prec.,
mm/h
press.,
hPa
HPBL,
m
10 april, sat
sat1000:00+5ssw61464100 0.0 10131392
03:00+5ssw71465100 0.0 10131025
06:00+4ssw61468100 0.0 1013764
09:00+6ssw61367100 0.0 1013862
12:00+10ssw7135590 0.0 10121612
15:00+10sw71462100 0.5 10121827
18:00+3w31296100 3.8 1015620
21:00+4wsw3893100 4.4 1018837
11 april, sun
sun1100:00+2sw259571 0.0 102097
03:000wsw11930 0.0 102211
06:000s11915 0.0 102410
09:00+4sse12785 0.0 1025273
12:00+8sse235898 0.0 10261278
15:00+9s3359100 0.0 10271254
18:00+9sse237458 0.0 1027676
21:00+5se2593100 0.0 1028110
12 april, mon
mon1200:00+5se259599 0.0 1028130
03:00+5se259495 0.0 1028124
06:00+5sse27945 0.0 1027114
09:00+9sse4117367 0.0 1027339
12:00+14s58505 0.0 1026910
15:00+16s57420 0.0 10251400
18:00+15sse37500 0.0 1023703
21:00+9se26732 0.0 102391
13 april, tue
tue1300:00+7sse2980100 0.0 1022174
03:00+6sse2683100 0.0 1021110
06:00+5sse2687100 0.0 1021114
09:00+10s366927 0.0 1020293
12:00+15s34482 0.0 1020940
15:00+17s23405 0.0 10191471
18:00+16sse23475 0.0 1019146
21:00+10se22645 0.0 101912
14 april, wed
wed1400:00+9ese239342 0.0 101842
03:00+10ese2396100 0.3 101780
06:00+9ese2497100 0.3 1015103
09:00+10se3896100 0.5 1015445
12:00+11sse3894100 0.3 1014618
15:00+11s3892100 0.4 1014544
18:00+11s2695100 0.3 1013291
21:00+9nw2399100 0.4 1014121